LKCS Weather Reports


Display with metric or nautical units.
time (UTC)temp
F
wind
direction
speed
MPH
gust
MPH
rain 1hr
in
rain 24hr
in
rain mn
in
humidity
%
barometer
mb
20260905230307 61 290 8.0 0.0 0.00 0.00 0.00 59 1025.0
20260905223231 63 290 8.0 0.0 0.00 0.00 0.00 55 1025.0
20260905220252 63 300 8.0 0.0 0.00 0.00 0.00 55 1025.0
20260905213304 64 300 8.0 0.0 0.00 0.00 0.00 52 1024.0
20260905210251 64 310 8.0 0.0 0.00 0.00 0.00 52 1024.0
20260905210120 66 310 8.0 0.0 0.00 0.00 0.00 52 1024.0
20260905205158 66 310 8.0 0.0 0.00 0.00 0.00 52 1024.0
20260905204758 66 310 8.0 0.0 0.00 0.00 0.00 52 1024.0
20260905204159 66 310 8.0 0.0 0.00 0.00 0.00 52 1024.0
20260905203306 66 310 8.0 0.0 0.00 0.00 0.00 52 1024.0
20260905203259 61 260 7.0 0.0 0.00 0.00 0.00 67 1023.0
20260905200959 61 260 7.0 0.0 0.00 0.00 0.00 67 1023.0
20260905200403 61 260 7.0 0.0 0.00 0.00 0.00 67 1023.0
20260905195959 63 260 6.0 0.0 0.00 0.00 0.00 63 1023.0
20260905195259 63 260 6.0 0.0 0.00 0.00 0.00 63 1023.0
20260905194159 63 260 6.0 0.0 0.00 0.00 0.00 63 1023.0
20260905193512 63 260 6.0 0.0 0.00 0.00 0.00 63 1023.0
20260905193259 63 260 6.0 0.0 0.00 0.00 0.00 63 1023.0
20260905192800 63 260 5.0 0.0 0.00 0.00 0.00 63 1022.0
20260905192213 63 260 5.0 0.0 0.00 0.00 0.00 63 1022.0
20260905191659 63 260 5.0 0.0 0.00 0.00 0.00 63 1022.0
20260905181359 64 260 8.0 0.0 0.00 0.00 0.00 63 1022.0
20260905181159 64 260 8.0 0.0 0.00 0.00 0.00 63 1022.0
20260905180759 64 260 8.0 0.0 0.00 0.00 0.00 63 1022.0
20260905180402 64 260 8.0 0.0 0.00 0.00 0.00 63 1022.0
20260905180201 66 270 9.0 0.0 0.00 0.00 0.00 59 1021.0
20260905175459 66 270 9.0 0.0 0.00 0.00 0.00 59 1021.0
20260905175259 66 270 9.0 0.0 0.00 0.00 0.00 59 1021.0
20260905174759 66 270 9.0 0.0 0.00 0.00 0.00 59 1021.0
20260905174159 66 270 9.0 0.0 0.00 0.00 0.00 59 1021.0
20260905173513 66 270 9.0 0.0 0.00 0.00 0.00 59 1021.0
20260905172759 70 260 16.0 0.0 0.00 0.00 0.00 52 1021.0
20260905172213 70 260 16.0 0.0 0.00 0.00 0.00 52 1021.0
20260905171621 70 260 16.0 0.0 0.00 0.00 0.00 52 1021.0
20260905170621 70 260 16.0 0.0 0.00 0.00 0.00 52 1021.0
20260905163907 72 270 18.0 0.0 0.00 0.00 0.00 46 1021.0
20260905163304 72 270 18.0 0.0 0.00 0.00 0.00 46 1021.0
20260905163005 72 270 15.0 0.0 0.00 0.00 0.00 49 1021.0
20260905162320 72 270 15.0 0.0 0.00 0.00 0.00 49 1021.0
20260905161707 72 270 15.0 0.0 0.00 0.00 0.00 49 1021.0
20260905161207 72 270 15.0 0.0 0.00 0.00 0.00 49 1021.0
20260905160906 72 270 15.0 0.0 0.00 0.00 0.00 49 1021.0
20260905160425 72 270 15.0 0.0 0.00 0.00 0.00 49 1021.0
20260905154806 72 260 16.0 0.0 0.00 0.00 0.00 49 1021.0
20260905154628 72 260 16.0 0.0 0.00 0.00 0.00 49 1021.0
20260905154307 72 260 16.0 0.0 0.00 0.00 0.00 49 1021.0
20260905151924 72 260 16.0 0.0 0.00 0.00 0.00 49 1021.0
20260905151207 72 260 16.0 0.0 0.00 0.00 0.00 49 1021.0
20260905150705 72 260 16.0 0.0 0.00 0.00 0.00 49 1021.0
20260905150006 72 260 18.0 30.0 0.00 0.00 0.00 49 1021.0
20260905145706 72 260 18.0 30.0 0.00 0.00 0.00 49 1021.0
20260905145404 72 260 18.0 30.0 0.00 0.00 0.00 49 1021.0
20260905145205 72 260 17.0 0.0 0.00 0.00 0.00 46 1021.0
20260905144306 72 260 17.0 0.0 0.00 0.00 0.00 46 1021.0
20260905143807 72 260 17.0 0.0 0.00 0.00 0.00 46 1021.0
20260905142213 72 260 23.0 0.0 0.00 0.00 0.00 46 1021.0
20260905140541 72 260 23.0 0.0 0.00 0.00 0.00 46 1021.0
20260905140211 73 260 20.0 0.0 0.00 0.00 0.00 46 1021.0
20260905135128 73 260 20.0 0.0 0.00 0.00 0.00 46 1021.0
20260905134706 73 260 20.0 0.0 0.00 0.00 0.00 46 1021.0
20260905134306 73 260 20.0 0.0 0.00 0.00 0.00 46 1021.0
20260905133907 72 260 22.0 0.0 0.00 0.00 0.00 46 1021.0
20260905133520 72 260 22.0 0.0 0.00 0.00 0.00 46 1021.0
20260905133206 72 250 20.0 0.0 0.00 0.00 0.00 49 1021.0
20260905132323 72 250 20.0 0.0 0.00 0.00 0.00 49 1021.0
20260905131706 72 250 20.0 0.0 0.00 0.00 0.00 49 1021.0
20260905131206 72 250 20.0 0.0 0.00 0.00 0.00 49 1021.0
20260905130806 72 250 20.0 0.0 0.00 0.00 0.00 49 1021.0
20260905130424 72 250 20.0 0.0 0.00 0.00 0.00 49 1021.0
20260905130316 70 260 17.0 0.0 0.00 0.00 0.00 56 1021.0
20260905125706 70 260 17.0 0.0 0.00 0.00 0.00 56 1021.0
20260905125507 70 260 17.0 0.0 0.00 0.00 0.00 56 1021.0
20260905125307 70 260 17.0 0.0 0.00 0.00 0.00 56 1021.0
20260905125006 70 260 17.0 0.0 0.00 0.00 0.00 56 1021.0
20260905124627 70 260 17.0 0.0 0.00 0.00 0.00 56 1021.0
20260905124127 70 260 17.0 0.0 0.00 0.00 0.00 56 1021.0
20260905123707 70 260 17.0 0.0 0.00 0.00 0.00 56 1021.0
20260905123406 70 260 17.0 0.0 0.00 0.00 0.00 56 1021.0
20260905123207 70 260 20.0 0.0 0.00 0.00 0.00 56 1021.0
20260905122220 70 260 20.0 0.0 0.00 0.00 0.00 56 1021.0
20260905121817 70 260 20.0 0.0 0.00 0.00 0.00 56 1021.0
20260905121206 70 260 20.0 0.0 0.00 0.00 0.00 56 1021.0
20260905120622 70 260 20.0 0.0 0.00 0.00 0.00 56 1021.0
20260905115914 70 250 17.0 0.0 0.00 0.00 0.00 56 1021.0
20260905114127 70 250 17.0 0.0 0.00 0.00 0.00 56 1021.0
20260905113245 70 250 17.0 0.0 0.00 0.00 0.00 56 1021.0
20260905112806 70 250 16.0 0.0 0.00 0.00 0.00 56 1021.0
20260905112326 70 250 16.0 0.0 0.00 0.00 0.00 56 1021.0
20260905111927 70 250 16.0 0.0 0.00 0.00 0.00 56 1021.0
20260905110316 70 250 16.0 0.0 0.00 0.00 0.00 56 1021.0
20260905105306 68 250 15.0 0.0 0.00 0.00 0.00 64 1021.0
20260905105128 68 250 15.0 0.0 0.00 0.00 0.00 64 1021.0
20260905104706 68 250 15.0 0.0 0.00 0.00 0.00 64 1021.0
20260905104406 68 250 15.0 0.0 0.00 0.00 0.00 64 1021.0
20260905103305 68 250 15.0 0.0 0.00 0.00 0.00 64 1021.0
20260905102906 66 250 16.0 0.0 0.00 0.00 0.00 68 1021.0
20260905102418 66 250 16.0 0.0 0.00 0.00 0.00 68 1021.0
20260905102006 66 250 16.0 0.0 0.00 0.00 0.00 68 1021.0
20260905101506 66 250 16.0 0.0 0.00 0.00 0.00 68 1021.0
20260905100906 66 250 16.0 0.0 0.00 0.00 0.00 68 1021.0
20260905100429 66 250 16.0 0.0 0.00 0.00 0.00 68 1021.0
20260905095306 66 270 12.0 0.0 0.00 0.00 0.00 68 1021.0
20260905094906 66 270 12.0 0.0 0.00 0.00 0.00 68 1021.0
20260905094306 66 270 12.0 0.0 0.00 0.00 0.00 68 1021.0
20260905093807 66 270 12.0 0.0 0.00 0.00 0.00 68 1021.0
20260905092506 64 0 6.0 0.0 0.00 0.00 0.00 72 1021.0
20260905092026 64 0 6.0 0.0 0.00 0.00 0.00 72 1021.0
20260905090907 64 0 6.0 0.0 0.00 0.00 0.00 72 1021.0
20260905090253 64 0 6.0 0.0 0.00 0.00 0.00 72 1021.0
20260905084306 63 250 3.0 0.0 0.00 0.00 0.00 77 1021.0
20260905083238 63 250 3.0 0.0 0.00 0.00 0.00 77 1021.0
20260905080248 61 220 8.0 0.0 0.00 0.00 0.00 82 1021.0
20260905073244 59 200 6.0 0.0 0.00 0.00 0.00 87 1021.0
20260905070314 57 0 2.0 0.0 0.00 0.00 0.00 93 1020.0
20260905063239 57 190 5.0 0.0 0.00 0.00 0.00 87 1020.0
20260905060253 55 0 2.0 0.0 0.00 0.00 0.00 93 1020.0
20260905053230 57 290 7.0 0.0 0.00 0.00 0.00 87 1021.0
20260905050250 59 320 7.0 0.0 0.00 0.00 0.00 87 1020.0
20260905043305 61 320 8.0 0.0 0.00 0.00 0.00 82 1020.0
20260905040307 61 0 2.0 0.0 0.00 0.00 0.00 93 1019.0
20260905033238 63 310 3.0 0.0 0.00 0.00 0.00 82 1018.0
20260905030307 61 0 2.0 0.0 0.00 0.00 0.00 93 1018.0
20260905023231 63 0 2.0 0.0 0.00 0.00 0.00 77 1017.0
20260905020240 64 340 6.0 0.0 0.00 0.00 0.00 72 1017.0
20260905013238 66 10 9.0 0.0 0.00 0.00 0.00 68 1017.0
20260905011606 70 360 12.0 0.0 0.00 0.00 0.00 64 1016.0
20260905010248 77 300 8.0 0.0 0.00 0.00 0.00 50 1015.0
20260905003231 73 280 6.0 0.0 0.00 0.00 0.00 53 1014.0
20260905000306 75 260 10.0 0.0 0.00 0.00 0.00 50 1014.0
20260904233231 77 260 9.0 0.0 0.00 0.00 0.00 47 1014.0